DW9882 Weather Reports


Display with metric or nautical units.
time (UTC)temp
F
wind
direction
speed
MPH
gust
MPH
rain 1hr
in
rain 24hr
in
rain mn
in
humidity
%
barometer
mb
20260905202205 92 138 2.0 6.0 0.00 0.00 0.00 22 1018.9
20260905201705 92 164 2.0 5.0 0.00 0.00 0.00 25 1018.9
20260905201205 91 152 1.0 5.0 0.00 0.00 0.00 22 1019.0
20260905200705 91 148 2.0 6.0 0.00 0.00 0.00 24 1019.0
20260905200205 91 148 2.0 5.0 0.00 0.00 0.00 23 1019.1
20260905195206 91 88 2.0 3.0 0.00 0.00 0.00 21 1019.3
20260905194705 90 92 2.0 5.0 0.00 0.00 0.00 22 1019.3
20260905194205 90 99 2.0 3.0 0.00 0.00 0.00 23 1019.3
20260905193706 90 76 0.0 7.0 0.00 0.00 0.00 27 1019.3
20260905193205 90 110 2.0 3.0 0.00 0.00 0.00 26 1019.4
20260905192705 90 67 2.0 5.0 0.00 0.00 0.00 23 1019.4
20260905191206 89 67 2.0 6.0 0.00 0.00 0.00 24 1019.5
20260905190205 89 66 4.0 9.0 0.00 0.00 0.00 23 1019.6
20260905185705 89 80 2.0 5.0 0.00 0.00 0.00 25 1019.6
20260905185205 89 113 2.0 3.0 0.00 0.00 0.00 25 1019.7
20260905184206 88 153 1.0 6.0 0.00 0.00 0.00 25 1019.7
20260905183705 88 29 3.0 6.0 0.00 0.00 0.00 25 1019.7
20260905183205 88 33 2.0 5.0 0.00 0.00 0.00 26 1019.8
20260905182705 88 89 1.0 6.0 0.00 0.00 0.00 29 1019.8
20260905182205 87 89 2.0 5.0 0.00 0.00 0.00 26 1019.8
20260905181705 87 77 1.0 3.0 0.00 0.00 0.00 28 1019.8
20260905180705 86 122 1.0 3.0 0.00 0.00 0.00 33 1019.9
20260905180205 85 103 1.0 3.0 0.00 0.00 0.00 32 1019.9
20260905175205 85 148 0.0 3.0 0.00 0.00 0.00 32 1020.1
20260905174705 84 76 1.0 3.0 0.00 0.00 0.00 31 1020.1
20260905171705 80 156 0.0 0.0 0.00 0.00 0.00 39 1020.0
20260905170705 80 156 0.0 1.0 0.00 0.00 0.00 39 1020.0
20260905170205 80 156 0.0 1.0 0.00 0.00 0.00 40 1019.9
20260905165705 80 156 0.0 1.0 0.00 0.00 0.00 42 1019.9
20260905165205 80 156 0.0 0.0 0.00 0.00 0.00 39 1020.0
20260905164205 80 156 0.0 2.0 0.00 0.00 0.00 37 1020.0
20260905163705 81 156 1.0 1.0 0.00 0.00 0.00 38 1019.9
20260905163205 81 156 0.0 1.0 0.00 0.00 0.00 37 1019.9
20260905162705 81 156 0.0 1.0 0.00 0.00 0.00 37 1019.9
20260905162205 81 156 1.0 3.0 0.00 0.00 0.00 37 1019.9
20260905161705 81 156 1.0 3.0 0.00 0.00 0.00 38 1019.8
20260905161205 80 156 0.0 1.0 0.00 0.00 0.00 41 1019.8
20260905160704 80 156 0.0 1.0 0.00 0.00 0.00 41 1019.8
20260905160205 79 156 0.0 1.0 0.00 0.00 0.00 40 1019.8
20260905155705 79 156 1.0 2.0 0.00 0.00 0.00 40 1019.8
20260905155205 78 156 1.0 2.0 0.00 0.00 0.00 42 1019.9
20260905153704 76 161 0.0 0.0 0.00 0.00 0.00 42 1019.8
20260905153205 75 161 0.0 0.0 0.00 0.00 0.00 43 1019.7
20260905152705 74 161 0.0 0.0 0.00 0.00 0.00 44 1019.7
20260905152205 73 161 0.0 0.0 0.00 0.00 0.00 47 1019.8
20260905151704 72 161 0.0 0.0 0.00 0.00 0.00 50 1019.7
20260905151205 70 161 0.0 0.0 0.00 0.00 0.00 58 1019.8
20260905150705 69 161 0.0 0.0 0.00 0.00 0.00 61 1019.8
20260905150204 69 161 0.0 0.0 0.00 0.00 0.00 65 1019.8
20260905145705 68 161 0.0 0.0 0.00 0.00 0.00 67 1019.9
20260905145205 67 161 0.0 0.0 0.00 0.00 0.00 68 1019.9
20260905144705 67 161 0.0 0.0 0.00 0.00 0.00 67 1019.9
20260905144205 66 161 0.0 0.0 0.00 0.00 0.00 68 1019.9
20260905143704 66 161 0.0 0.0 0.00 0.00 0.00 69 1020.0
20260905143205 65 161 0.0 0.0 0.00 0.00 0.00 68 1020.0
20260905142705 64 161 0.0 0.0 0.00 0.00 0.00 71 1020.0
20260905142205 63 161 0.0 0.0 0.00 0.00 0.00 74 1019.9
20260905141705 62 161 0.0 0.0 0.00 0.00 0.00 74 1019.9
20260905140206 60 161 0.0 0.0 0.00 0.00 0.00 75 1019.8
20260905135204 59 161 0.0 0.0 0.00 0.00 0.00 76 1019.7
20260905134705 59 161 0.0 0.0 0.00 0.00 0.00 76 1019.7
20260905134205 59 161 0.0 0.0 0.00 0.00 0.00 76 1019.7
20260905133704 58 161 0.0 0.0 0.00 0.00 0.00 75 1019.6
20260905133204 58 161 0.0 0.0 0.00 0.00 0.00 75 1019.6
20260905132705 58 161 0.0 0.0 0.00 0.00 0.00 75 1019.6
20260905132204 58 161 0.0 0.0 0.00 0.00 0.00 74 1019.6
20260905131705 57 161 0.0 0.0 0.00 0.00 0.00 74 1019.6
20260905131204 57 161 0.0 0.0 0.00 0.00 0.00 74 1019.6
20260905130705 57 161 0.0 0.0 0.00 0.00 0.00 74 1019.5
20260905130204 57 161 0.0 0.0 0.00 0.00 0.00 74 1019.6
20260905125705 57 161 0.0 0.0 0.00 0.00 0.00 74 1019.5
20260905125205 57 161 0.0 0.0 0.00 0.00 0.00 73 1019.5
20260905124704 57 161 0.0 0.0 0.00 0.00 0.00 73 1019.4
20260905124205 57 161 0.0 0.0 0.00 0.00 0.00 72 1019.3
20260905123704 57 161 0.0 0.0 0.00 0.00 0.00 72 1019.3
20260905123205 58 161 0.0 0.0 0.00 0.00 0.00 72 1019.2
20260905122704 58 161 0.0 0.0 0.00 0.00 0.00 72 1019.2
20260905122205 58 161 0.0 0.0 0.00 0.00 0.00 72 1019.1
20260905121705 58 161 0.0 0.0 0.00 0.00 0.00 71 1019.1
20260905121204 58 161 0.0 0.0 0.00 0.00 0.00 71 1019.1
20260905120705 58 161 0.0 0.0 0.00 0.00 0.00 70 1019.1
20260905115205 58 161 0.0 0.0 0.00 0.00 0.00 69 1019.1
20260905114704 59 161 0.0 0.0 0.00 0.00 0.00 69 1019.1
20260905114204 59 161 0.0 0.0 0.00 0.00 0.00 69 1019.1
20260905113704 59 161 0.0 0.0 0.00 0.00 0.00 69 1019.1
20260905113204 59 161 0.0 0.0 0.00 0.00 0.00 68 1019.0
20260905112205 59 161 0.0 0.0 0.00 0.00 0.00 68 1019.1
20260905111205 60 161 0.0 0.0 0.00 0.00 0.00 66 1019.0
20260905110704 60 161 0.0 0.0 0.00 0.00 0.00 66 1019.0
20260905110205 60 161 0.0 0.0 0.00 0.00 0.00 66 1018.9
20260905105704 60 161 0.0 1.0 0.00 0.00 0.00 65 1018.9
20260905105204 60 161 0.0 0.0 0.00 0.00 0.00 65 1018.9
20260905104704 60 161 0.0 0.0 0.00 0.00 0.00 64 1018.9
20260905104204 60 161 0.0 0.0 0.00 0.00 0.00 64 1018.8
20260905103205 61 161 0.0 0.0 0.00 0.00 0.00 63 1018.7
20260905102204 61 161 0.0 0.0 0.00 0.00 0.00 63 1018.6
20260905101704 61 161 0.0 0.0 0.00 0.00 0.00 63 1018.6
20260905101205 61 161 0.0 0.0 0.00 0.00 0.00 63 1018.6
20260905100204 61 161 0.0 0.0 0.00 0.00 0.00 61 1018.6
20260905095704 61 161 0.0 0.0 0.00 0.00 0.00 61 1018.6
20260905095204 62 161 0.0 0.0 0.00 0.00 0.00 62 1018.6
20260905094704 62 161 0.0 0.0 0.00 0.00 0.00 62 1018.5
20260905093704 62 161 0.0 0.0 0.00 0.00 0.00 60 1018.4
20260905093205 62 161 0.0 0.0 0.00 0.00 0.00 59 1018.4
20260905092704 62 161 0.0 0.0 0.00 0.00 0.00 59 1018.3
20260905092204 62 161 0.0 0.0 0.00 0.00 0.00 59 1018.3
20260905091704 63 161 0.0 0.0 0.00 0.00 0.00 59 1018.3
20260905091204 63 161 0.0 0.0 0.00 0.00 0.00 59 1018.3
20260905090704 63 161 0.0 0.0 0.00 0.00 0.00 58 1018.2
20260905090204 63 161 0.0 0.0 0.00 0.00 0.00 58 1018.2
20260905085705 63 161 0.0 0.0 0.00 0.00 0.00 58 1018.3
20260905085204 63 161 0.0 0.0 0.00 0.00 0.00 58 1018.3
20260905084705 63 161 0.0 0.0 0.00 0.00 0.00 57 1018.3
20260905083704 64 161 0.0 0.0 0.00 0.00 0.00 57 1018.3
20260905083204 64 161 0.0 0.0 0.00 0.00 0.00 56 1018.3
20260905081705 64 161 0.0 0.0 0.00 0.00 0.00 55 1018.4
20260905081204 65 161 0.0 0.0 0.00 0.00 0.00 55 1018.4
20260905080705 65 161 0.0 0.0 0.00 0.00 0.00 54 1018.4
20260905080204 65 161 0.0 0.0 0.00 0.00 0.00 54 1018.4
20260905075704 65 161 0.0 0.0 0.00 0.00 0.00 53 1018.3
20260905075205 65 161 0.0 0.0 0.00 0.00 0.00 54 1018.3
20260905074204 65 161 0.0 0.0 0.00 0.00 0.00 53 1018.4
20260905073704 65 161 0.0 0.0 0.00 0.00 0.00 54 1018.4
20260905073204 66 161 0.0 1.0 0.00 0.00 0.00 54 1018.4
20260905072703 66 161 0.0 0.0 0.00 0.00 0.00 52 1018.5
20260905072204 66 161 0.0 0.0 0.00 0.00 0.00 53 1018.4
20260905070704 66 161 0.0 0.0 0.00 0.00 0.00 52 1018.4
20260905070204 66 161 0.0 0.0 0.00 0.00 0.00 52 1018.4
20260905065204 66 161 0.0 0.0 0.00 0.00 0.00 52 1018.4
20260905064704 66 161 0.0 2.0 0.00 0.00 0.00 51 1018.4
20260905064204 66 161 0.0 1.0 0.00 0.00 0.00 52 1018.3
20260905063704 66 161 0.0 1.0 0.00 0.00 0.00 52 1018.3
20260905063205 66 161 0.0 1.0 0.00 0.00 0.00 53 1018.2
20260905062704 67 161 0.0 1.0 0.00 0.00 0.00 53 1018.2
20260905062204 67 161 0.0 0.0 0.00 0.00 0.00 53 1018.2
20260905061704 67 161 0.0 1.0 0.00 0.00 0.00 53 1018.2
20260905060705 68 161 0.0 0.0 0.00 0.00 0.00 52 1018.2
20260905060204 68 161 0.0 0.0 0.00 0.00 0.00 51 1018.2
20260905055203 68 161 0.0 0.0 0.00 0.00 0.00 51 1018.1
20260905054704 68 161 0.0 0.0 0.00 0.00 0.00 51 1018.1
20260905054203 69 161 0.0 0.0 0.00 0.00 0.00 51 1018.1
20260905053204 69 161 0.0 0.0 0.00 0.00 0.00 51 1018.0
20260905052704 69 161 0.0 0.0 0.00 0.00 0.00 51 1017.9
20260905051704 70 161 0.0 0.0 0.00 0.00 0.00 50 1018.0
20260905051204 70 161 0.0 0.0 0.00 0.00 0.00 50 1017.9
20260905050704 70 161 0.0 0.0 0.00 0.00 0.00 49 1017.9
20260905050203 70 161 0.0 0.0 0.00 0.00 0.00 49 1017.9
20260905045704 71 161 0.0 0.0 0.00 0.00 0.00 49 1018.0
20260905045204 71 161 0.0 0.0 0.00 0.00 0.00 49 1018.0
20260905044703 71 161 0.0 1.0 0.00 0.00 0.00 48 1017.9
20260905044204 72 161 0.0 2.0 0.00 0.00 0.00 47 1017.9
20260905043704 72 32 0.0 1.0 0.00 0.00 0.00 47 1017.9
20260905042704 73 32 0.0 0.0 0.00 0.00 0.00 46 1017.9
20260905042203 73 32 0.0 0.0 0.00 0.00 0.00 45 1017.9
20260905041704 74 32 0.0 1.0 0.00 0.00 0.00 45 1017.9
20260905041205 74 32 0.0 0.0 0.00 0.00 0.00 44 1017.9
20260905040204 75 32 0.0 1.0 0.00 0.00 0.00 42 1017.9
20260905035704 75 32 0.0 1.0 0.00 0.00 0.00 42 1017.9
20260905035204 76 32 0.0 1.0 0.00 0.00 0.00 40 1017.9
20260905034704 76 32 0.0 0.0 0.00 0.00 0.00 40 1017.9
20260905034204 77 32 0.0 0.0 0.00 0.00 0.00 40 1017.9
20260905033703 77 32 0.0 1.0 0.00 0.00 0.00 38 1017.9
20260905033204 78 32 0.0 0.0 0.00 0.00 0.00 37 1017.9
20260905032204 79 32 0.0 0.0 0.00 0.00 0.00 36 1017.8
20260905031704 79 32 0.0 0.0 0.00 0.00 0.00 36 1017.8
20260905031203 80 32 0.0 0.0 0.00 0.00 0.00 34 1017.8
20260905030704 80 32 0.0 0.0 0.00 0.00 0.00 34 1017.8
20260905025704 81 32 0.0 1.0 0.00 0.00 0.00 32 1017.6
20260905025204 81 32 0.0 0.0 0.00 0.00 0.00 31 1017.6
20260905024703 82 32 0.0 0.0 0.00 0.00 0.00 30 1017.5
20260905024204 82 32 0.0 0.0 0.00 0.00 0.00 30 1017.5
20260905023704 82 32 0.0 0.0 0.00 0.00 0.00 29 1017.5
20260905023204 83 32 0.0 0.0 0.00 0.00 0.00 29 1017.4
20260905022703 83 32 0.0 0.0 0.00 0.00 0.00 28 1017.3
20260905022204 83 32 0.0 0.0 0.00 0.00 0.00 28 1017.2
20260905021707 83 32 0.0 0.0 0.00 0.00 0.00 28 1017.1
20260905021205 83 32 1.0 3.0 0.00 0.00 0.00 27 1017.0
20260905020706 83 32 1.0 5.0 0.00 0.00 0.00 27 1017.0
20260905020206 84 102 1.0 6.0 0.00 0.00 0.00 27 1016.9
20260905015705 84 23 0.0 2.0 0.00 0.00 0.00 27 1016.9
20260905015206 84 23 1.0 3.0 0.00 0.00 0.00 27 1016.8
20260905014706 84 340 1.0 3.0 0.00 0.00 0.00 27 1016.8
20260905013706 84 12 1.0 5.0 0.00 0.00 0.00 26 1016.8
20260905013205 85 99 0.0 2.0 0.00 0.00 0.00 26 1016.8
20260905012705 85 99 0.0 2.0 0.00 0.00 0.00 26 1016.7
20260905012206 85 103 0.0 1.0 0.00 0.00 0.00 26 1016.8
20260905011706 86 103 0.0 1.0 0.00 0.00 0.00 25 1016.7
20260905011206 86 102 0.0 3.0 0.00 0.00 0.00 26 1016.7
20260905010706 87 96 0.0 1.0 0.00 0.00 0.00 25 1016.7
20260905010205 87 96 0.0 1.0 0.00 0.00 0.00 25 1016.7
20260905005705 87 96 1.0 1.0 0.00 0.00 0.00 25 1016.7
20260905005205 88 124 0.0 3.0 0.00 0.00 0.00 25 1016.7
20260905004705 88 92 1.0 3.0 0.00 0.00 0.00 24 1016.7
20260905004205 88 122 1.0 3.0 0.00 0.00 0.00 24 1016.7
20260905003705 89 110 1.0 6.0 0.00 0.00 0.00 23 1016.7
20260905003206 89 111 2.0 7.0 0.00 0.00 0.00 23 1016.7
20260905002707 89 102 0.0 2.0 0.00 0.00 0.00 24 1016.7
20260905002205 90 101 1.0 3.0 0.00 0.00 0.00 23 1016.6
20260905001705 90 111 1.0 3.0 0.00 0.00 0.00 24 1016.6
20260905001205 91 112 1.0 3.0 0.00 0.00 0.00 23 1016.5
20260905000706 91 111 1.0 6.0 0.00 0.00 0.00 22 1016.5
20260904235706 92 121 2.0 3.0 0.00 0.00 0.00 21 1016.5
20260904235205 92 99 2.0 5.0 0.00 0.00 0.00 22 1016.5
20260904234705 92 90 2.0 3.0 0.00 0.00 0.00 21 1016.5
20260904234205 93 140 1.0 3.0 0.00 0.00 0.00 21 1016.4
20260904233705 93 68 1.0 3.0 0.00 0.00 0.00 21 1016.4
20260904233205 93 62 2.0 5.0 0.00 0.00 0.00 20 1016.3
20260904232705 93 135 1.0 3.0 0.00 0.00 0.00 22 1016.3
20260904232205 94 112 0.0 3.0 0.00 0.00 0.00 23 1016.2
20260904231705 94 108 2.0 9.0 0.00 0.00 0.00 20 1016.2
20260904231206 94 121 0.0 3.0 0.00 0.00 0.00 21 1016.2
20260904230705 94 114 2.0 6.0 0.00 0.00 0.00 19 1016.2
20260904230205 95 111 1.0 3.0 0.00 0.00 0.00 20 1016.3
20260904225706 95 24 2.0 3.0 0.00 0.00 0.00 18 1016.2
20260904225206 95 115 0.0 2.0 0.00 0.00 0.00 20 1016.3
20260904224705 95 117 2.0 7.0 0.00 0.00 0.00 17 1016.3
20260904224205 95 117 0.0 3.0 0.00 0.00 0.00 19 1016.3
20260904223705 95 26 1.0 3.0 0.00 0.00 0.00 20 1016.3
20260904223205 95 96 0.0 3.0 0.00 0.00 0.00 18 1016.3
20260904221705 94 112 2.0 3.0 0.00 0.00 0.00 17 1016.4
20260904221205 95 169 0.0 2.0 0.00 0.00 0.00 16 1016.4
20260904220205 95 148 0.0 2.0 0.00 0.00 0.00 18 1016.5
20260904215705 94 98 1.0 3.0 0.00 0.00 0.00 19 1016.5
20260904215205 94 187 1.0 3.0 0.00 0.00 0.00 19 1016.6
20260904214705 94 65 2.0 3.0 0.00 0.00 0.00 17 1016.6
20260904214205 94 147 2.0 5.0 0.00 0.00 0.00 17 1016.6
20260904213705 94 50 3.0 6.0 0.00 0.00 0.00 16 1016.6
20260904213205 94 150 1.0 2.0 0.00 0.00 0.00 18 1016.7
20260904212706 93 200 1.0 3.0 0.00 0.00 0.00 19 1016.7
20260904212205 93 246 1.0 3.0 0.00 0.00 0.00 18 1016.8
20260904211705 93 181 1.0 5.0 0.00 0.00 0.00 19 1016.8
20260904211205 93 48 1.0 3.0 0.00 0.00 0.00 19 1016.8
20260904210705 92 49 2.0 8.0 0.00 0.00 0.00 18 1016.9
20260904210205 93 55 3.0 9.0 0.00 0.00 0.00 16 1017.0
20260904205705 93 74 2.0 3.0 0.00 0.00 0.00 17 1017.0
20260904205205 93 147 1.0 5.0 0.00 0.00 0.00 21 1017.1
20260904204705 93 38 2.0 3.0 0.00 0.00 0.00 16 1017.2
20260904204205 93 46 2.0 5.0 0.00 0.00 0.00 17 1017.2